Weather in Shkodër

Albania     42°04′18″N   19°30′47″E
temp.,
°C
wind,
m/s
gust,
m/s
humid.,
%
clouds,
%
prec.,
mm/h
press.,
hPa
HPBL,
m
30 november, tue
tue3001:00+8e1290100 6.6 1000101
04:00+5nne3590100 4.2 1003389
07:00+5nne4980100 5.0 1006576
10:00+6nne2458100 0.1 1012873
13:00+8n23464 0.2 10141447
16:00+6wsw11582 0.0 101614
19:00+4ene11695 0.0 101914
22:00+3ene11733 0.0 102013
1 december, wed
wed101:00+3ene117273 0.0 102113
04:00+3ne117252 0.0 102116
07:00+4nne117151 0.0 102218
10:00+7nne116217 0.0 1022300
13:00+9ese016111 0.0 1019513
16:00+9nne1170100 0.0 101818
19:00+8ene2173100 0.0 101834
22:00+8e117589 0.0 101719
2 december, thu
thu201:00+8ene1174100 0.2 101517
04:00+8ene117094 0.0 101421
07:00+9e1170100 0.1 101318
10:00+8ese2590100 2.8 1012190
13:00+11sse51184100 5.9 1009576
16:00+11sse4108197 2.5 1008389
19:00+10ese2384100 3.3 100867
22:00+11sse3888100 2.7 1007314
3 december, fri
fri301:00+13s81584100 7.7 1006900
04:00+13s91683100 7.6 1004868
07:00+13s91683100 18.9 1005757
10:00+13s91581100 9.8 1005875
13:00+14ssw101580100 20.1 1004903
16:00+13ssw51084100 11.6 1003325
19:00+9n4593100 19.2 1005238
22:00+6ne4988100 6.9 1007463
4 december, sat
sat401:00+6ne4886100 11.6 1007453
04:00+5ne4882100 2.4 1007442
07:00+5ne357874 2.4 1008317
10:00+7ene35655 0.0 1009517
13:00+9ene22615 0.0 1008648
16:00+6e22758 0.0 100829
19:00+5ene1177100 0.0 101014
22:00+5ne117746 0.0 101022